EW1107 Weather Reports


Display with metric or nautical units.
time (UTC)temp
F
wind
direction
speed
MPH
gust
MPH
rain 1hr
in
rain 24hr
in
rain mn
in
humidity
%
barometer
mb
20260901234049 55 234 0.0 0.0 0.00 0.01 0.00 90 1017.8
20260901233548 56 234 0.0 0.0 0.00 0.01 0.00 90 1017.7
20260901233049 56 234 0.0 0.0 0.00 0.01 0.00 90 1017.8
20260901232547 56 234 0.0 0.0 0.00 0.01 0.00 90 1017.8
20260901232047 56 234 0.0 0.0 0.00 0.01 0.00 90 1017.7
20260901231546 56 234 0.0 0.0 0.00 0.01 0.00 89 1017.8
20260901231046 56 234 0.0 0.0 0.00 0.01 0.00 89 1017.7
20260901230545 56 234 0.0 0.0 0.00 0.01 0.00 89 1017.8
20260901230045 56 234 0.0 0.0 0.00 0.01 0.00 89 1017.8
20260901225043 57 234 0.0 0.0 0.00 0.01 0.00 88 1017.8
20260901224544 57 234 0.0 0.0 0.00 0.01 0.00 87 1017.8
20260901224041 57 234 0.0 0.0 0.00 0.01 0.00 87 1017.8
20260901223541 57 234 0.0 0.0 0.00 0.01 0.00 86 1017.8
20260901223047 58 234 0.0 0.0 0.00 0.01 0.00 86 1017.8
20260901222540 58 234 0.0 0.0 0.00 0.01 0.00 86 1017.8
20260901222040 58 234 0.0 0.0 0.00 0.01 0.00 86 1017.8
20260901221554 58 234 0.0 0.0 0.00 0.01 0.00 86 1017.8
20260901221037 59 234 0.0 0.0 0.00 0.01 0.00 85 1017.8
20260901220535 59 234 0.0 0.0 0.00 0.01 0.00 85 1017.8
20260901220036 59 234 0.0 0.0 0.00 0.01 0.01 85 1017.8
20260901215534 59 234 0.0 0.0 0.00 0.01 0.01 85 1017.8
20260901215035 59 234 0.0 0.0 0.00 0.01 0.01 85 1017.8
20260901214534 59 234 0.0 0.0 0.00 0.01 0.01 85 1017.7
20260901214034 60 234 0.0 0.0 0.00 0.01 0.01 85 1017.7
20260901213536 60 234 0.0 0.0 0.00 0.01 0.01 85 1017.8
20260901213033 60 234 0.0 0.0 0.00 0.01 0.01 85 1017.8
20260901212535 60 234 0.0 0.0 0.00 0.01 0.01 85 1017.8
20260901212034 60 234 0.0 0.0 0.00 0.01 0.01 85 1017.8
20260901211533 60 234 0.0 0.0 0.00 0.01 0.01 85 1017.8
20260901211035 60 234 0.0 0.0 0.00 0.01 0.01 86 1017.8
20260901210532 60 232 0.0 0.0 0.00 0.01 0.01 86 1017.7
20260901210032 60 232 0.0 0.0 0.00 0.01 0.01 85 1017.7
20260901205632 60 232 0.0 0.0 0.00 0.01 0.01 85 1017.7
20260901205037 60 232 0.0 0.0 0.00 0.01 0.01 85 1017.7
20260901204531 60 232 0.0 0.0 0.00 0.01 0.01 84 1017.7
20260901204033 60 232 0.0 0.0 0.00 0.01 0.01 84 1017.7
20260901203531 61 232 0.0 0.0 0.00 0.01 0.01 84 1017.6
20260901203031 61 232 0.0 0.0 0.00 0.01 0.01 84 1017.6
20260901202531 61 232 0.0 0.0 0.00 0.01 0.01 83 1017.6
20260901202031 61 232 0.0 0.0 0.00 0.01 0.01 83 1017.6
20260901201531 61 232 0.0 0.0 0.00 0.01 0.01 83 1017.6
20260901201033 61 232 0.0 0.0 0.00 0.01 0.01 83 1017.6
20260901200529 62 234 0.0 0.0 0.00 0.01 0.01 83 1017.7
20260901200037 62 234 0.0 0.0 0.00 0.01 0.01 83 1017.7
20260901195529 62 234 0.0 0.0 0.00 0.01 0.01 83 1017.8
20260901195132 62 234 0.0 0.0 0.00 0.01 0.01 83 1017.7
20260901194529 62 234 0.0 0.0 0.00 0.01 0.01 83 1017.8
20260901194033 62 234 0.0 0.0 0.00 0.01 0.01 82 1017.8
20260901193529 62 234 0.0 0.0 0.00 0.01 0.01 82 1017.8
20260901193028 62 234 0.0 0.0 0.00 0.01 0.01 82 1017.8
20260901192528 62 236 0.0 0.0 0.00 0.01 0.01 82 1017.8
20260901192030 62 238 0.0 0.0 0.00 0.01 0.01 82 1017.7
20260901191549 62 250 0.0 0.0 0.00 0.01 0.01 82 1017.8
20260901191027 62 266 0.0 0.0 0.00 0.01 0.01 82 1017.7
20260901190528 62 266 0.0 0.0 0.00 0.01 0.01 82 1017.8
20260901190027 63 266 0.0 0.0 0.00 0.01 0.01 81 1017.7
20260901185528 63 266 0.0 0.0 0.00 0.01 0.01 81 1017.7
20260901185027 63 266 0.0 0.0 0.00 0.01 0.01 80 1017.7
20260901184530 63 266 0.0 0.0 0.00 0.01 0.01 80 1017.7
20260901184026 63 266 0.0 0.0 0.00 0.01 0.01 80 1017.7
20260901183526 64 266 0.0 0.0 0.00 0.01 0.01 79 1017.5
20260901183024 64 266 0.0 0.0 0.00 0.01 0.01 79 1017.6
20260901182524 64 266 0.0 0.0 0.00 0.01 0.01 78 1017.5
20260901182023 64 266 0.0 0.0 0.00 0.01 0.01 78 1017.4
20260901181524 64 266 0.0 0.0 0.00 0.01 0.01 78 1017.4
20260901181023 65 266 0.0 0.0 0.00 0.01 0.01 77 1017.4
20260901180524 65 267 0.0 0.0 0.00 0.01 0.01 77 1017.3
20260901180021 65 277 0.0 0.0 0.00 0.01 0.01 77 1017.3
20260901175523 65 277 0.0 0.0 0.00 0.01 0.01 77 1017.3
20260901175025 65 277 0.0 0.0 0.00 0.01 0.01 76 1017.2
20260901174620 65 277 0.0 4.0 0.00 0.01 0.01 76 1017.2
20260901174020 65 277 0.0 7.0 0.00 0.01 0.01 76 1017.1
20260901173519 65 277 1.0 9.0 0.00 0.01 0.01 75 1017.1
20260901173024 65 280 1.0 9.0 0.00 0.01 0.01 75 1017.1
20260901172519 65 276 2.0 13.0 0.00 0.01 0.01 75 1017.0
20260901172018 65 256 5.0 11.0 0.00 0.01 0.01 74 1016.9
20260901171522 66 249 4.0 9.0 0.00 0.01 0.01 74 1016.9
20260901171116 66 253 2.0 9.0 0.00 0.01 0.01 74 1016.8
20260901170516 66 256 2.0 13.0 0.00 0.01 0.01 74 1016.8
20260901170015 66 223 4.0 13.0 0.00 0.01 0.01 73 1016.7
20260901165514 66 208 0.0 12.0 0.00 0.01 0.01 73 1016.7
20260901165014 66 254 5.0 14.0 0.00 0.01 0.01 73 1016.7
20260901164533 66 213 6.0 14.0 0.00 0.01 0.01 73 1016.6
20260901164013 67 246 4.0 13.0 0.00 0.01 0.01 72 1016.7
20260901163516 67 265 3.0 19.0 0.00 0.01 0.01 72 1016.6
20260901163013 67 263 7.0 19.0 0.00 0.01 0.01 71 1016.6
20260901162513 68 217 8.0 21.0 0.00 0.01 0.01 70 1016.6
20260901162016 68 252 12.0 21.0 0.00 0.01 0.01 70 1016.6
20260901161526 68 250 9.0 19.0 0.00 0.01 0.01 71 1016.6
20260901161012 68 202 8.0 23.0 0.00 0.01 0.01 71 1016.6
20260901160514 68 258 8.0 23.0 0.00 0.01 0.01 71 1016.5
20260901160011 68 240 5.0 14.0 0.00 0.01 0.01 72 1016.5
20260901155510 67 244 6.0 19.0 0.00 0.01 0.01 72 1016.4
20260901155011 67 279 7.0 19.0 0.00 0.01 0.01 71 1016.4
20260901154510 68 293 7.0 17.0 0.00 0.01 0.01 71 1016.4
20260901153511 68 264 8.0 20.0 0.00 0.01 0.01 71 1016.4
20260901153009 68 301 9.0 20.0 0.00 0.01 0.01 71 1016.4
20260901152508 67 299 5.0 19.0 0.00 0.01 0.01 71 1016.4
20260901152008 67 335 10.0 19.0 0.00 0.01 0.01 71 1016.3
20260901151510 67 260 9.0 22.0 0.00 0.01 0.01 71 1016.3
20260901151008 67 316 12.0 22.0 0.00 0.01 0.01 70 1016.3
20260901150509 68 286 10.0 21.0 0.00 0.01 0.01 70 1016.3
20260901150008 68 300 11.0 20.0 0.00 0.01 0.01 70 1016.2
20260901145508 68 286 12.0 21.0 0.00 0.01 0.01 70 1016.2
20260901145008 68 271 11.0 25.0 0.00 0.01 0.01 71 1016.2
20260901144507 68 227 13.0 25.0 0.00 0.01 0.01 74 1016.2
20260901144009 66 274 3.0 8.0 0.00 0.01 0.01 80 1016.2
20260901143506 66 300 1.0 9.0 0.00 0.01 0.01 80 1016.2
20260901143007 65 302 3.0 10.0 0.00 0.01 0.01 81 1016.3
20260901142506 65 286 5.0 11.0 0.00 0.01 0.01 81 1016.3
20260901142006 65 279 3.0 15.0 0.00 0.01 0.01 81 1016.3
20260901141506 65 307 7.0 17.0 0.00 0.01 0.01 81 1016.3
20260901141006 65 326 7.0 17.0 0.00 0.01 0.01 81 1016.2
20260901140505 65 339 9.0 17.0 0.00 0.01 0.01 81 1016.2
20260901140005 65 355 10.0 26.0 0.00 0.02 0.01 80 1016.3
20260901135505 66 360 8.0 26.0 0.00 0.02 0.01 79 1016.3
20260901135006 65 303 8.0 24.0 0.00 0.02 0.01 79 1016.3
20260901134505 66 321 11.0 27.0 0.00 0.02 0.01 78 1016.3
20260901134004 66 290 15.0 27.0 0.00 0.02 0.01 76 1016.2
20260901133003 67 226 8.0 20.0 0.00 0.02 0.01 73 1016.3
20260901132504 68 290 10.0 30.0 0.00 0.02 0.01 72 1016.3
20260901132002 68 274 15.0 30.0 0.00 0.02 0.01 70 1016.2
20260901131504 68 278 8.0 31.0 0.00 0.02 0.01 72 1016.1
20260901131002 69 226 14.0 31.0 0.00 0.02 0.01 70 1016.2
20260901130503 69 308 11.0 32.0 0.00 0.02 0.01 72 1016.1
20260901130002 68 242 17.0 31.0 0.00 0.07 0.01 71 1016.2
20260901125600 68 196 13.0 31.0 0.00 0.07 0.01 72 1016.3
20260901125100 68 243 15.0 30.0 0.00 0.07 0.01 71 1016.3
20260901124602 68 251 11.0 33.0 0.00 0.07 0.01 71 1016.3
20260901124059 68 277 14.0 34.0 0.00 0.07 0.01 72 1016.2
20260901123558 68 259 14.0 34.0 0.00 0.07 0.01 71 1016.1
20260901123059 68 263 17.0 38.0 0.00 0.07 0.01 70 1016.1
20260901122559 68 271 16.0 38.0 0.00 0.07 0.01 70 1016.0
20260901122057 68 296 15.0 31.0 0.00 0.07 0.01 70 1016.0
20260901121557 67 235 15.0 27.0 0.00 0.07 0.01 71 1016.1
20260901121059 68 304 12.0 26.0 0.00 0.07 0.01 71 1015.9
20260901120557 67 223 10.0 30.0 0.00 0.07 0.01 72 1016.0
20260901120056 67 246 11.0 30.0 0.00 0.07 0.01 73 1016.0
20260901115556 66 273 11.0 21.0 0.00 0.07 0.01 74 1016.0
20260901115057 66 285 10.0 20.0 0.00 0.07 0.01 74 1016.0
20260901114632 66 238 10.0 31.0 0.00 0.07 0.01 74 1015.9
20260901114055 66 273 14.0 40.0 0.00 0.07 0.01 74 1016.1
20260901113555 66 306 17.0 40.0 0.00 0.07 0.01 74 1016.0
20260901112554 65 298 12.0 30.0 0.00 0.07 0.01 76 1016.0
20260901112053 65 262 14.0 25.0 0.00 0.07 0.01 75 1015.8
20260901111553 66 272 10.0 25.0 0.00 0.07 0.01 74 1015.8
20260901111053 66 284 8.0 43.0 0.00 0.07 0.01 73 1015.9
20260901110552 67 283 17.0 43.0 0.00 0.07 0.01 71 1015.8
20260901110054 68 287 19.0 37.0 0.00 0.07 0.01 70 1015.7
20260901105551 67 219 10.0 33.0 0.00 0.07 0.01 72 1015.8
20260901105051 66 329 13.0 34.0 0.00 0.07 0.01 72 1015.8
20260901104550 67 326 21.0 34.0 0.00 0.07 0.01 72 1015.7
20260901104051 66 267 12.0 25.0 0.00 0.07 0.01 75 1015.8
20260901103548 65 260 11.0 25.0 0.00 0.07 0.01 77 1015.8
20260901103049 64 329 13.0 27.0 0.00 0.07 0.01 78 1015.7
20260901102549 64 246 12.0 25.0 0.00 0.07 0.01 78 1015.8
20260901102049 65 242 14.0 32.0 0.00 0.07 0.01 76 1015.7
20260901101550 65 263 15.0 32.0 0.00 0.07 0.01 74 1015.6
20260901101047 66 337 15.0 28.0 0.00 0.07 0.01 74 1015.5
20260901100547 66 260 12.0 26.0 0.00 0.07 0.01 73 1015.5
20260901100049 67 307 14.0 32.0 0.00 0.07 0.01 73 1015.4
20260901095546 65 247 12.0 32.0 0.00 0.07 0.01 75 1015.4
20260901095046 66 300 17.0 34.0 0.00 0.07 0.01 73 1015.4
20260901094546 65 248 15.0 36.0 0.00 0.07 0.01 75 1015.4
20260901094044 66 220 17.0 36.0 0.00 0.07 0.01 75 1015.4
20260901093546 66 265 12.0 36.0 0.00 0.07 0.01 75 1015.4
20260901093043 66 311 18.0 35.0 0.00 0.07 0.01 75 1015.2
20260901092042 65 248 12.0 31.0 0.00 0.07 0.01 76 1015.2
20260901091544 65 292 12.0 40.0 0.00 0.07 0.01 75 1015.1
20260901091041 66 268 22.0 40.0 0.00 0.07 0.01 73 1015.1
20260901090541 67 269 14.0 34.0 0.00 0.07 0.01 73 1015.1
20260901090046 67 252 15.0 30.0 0.00 0.07 0.01 74 1015.0
20260901085539 66 232 18.0 34.0 0.00 0.07 0.01 75 1015.1
20260901085039 66 268 17.0 34.0 0.00 0.07 0.01 75 1015.0
20260901084543 65 168 13.0 30.0 0.00 0.07 0.01 75 1015.0
20260901084040 66 272 14.0 29.0 0.00 0.07 0.01 75 1015.0
20260901083537 65 282 17.0 29.0 0.00 0.07 0.01 76 1015.0
20260901083038 65 244 7.0 37.0 0.00 0.07 0.01 77 1015.0
20260901082538 65 242 13.0 37.0 0.00 0.07 0.01 75 1015.1
20260901082036 65 265 9.0 27.0 0.00 0.07 0.01 77 1015.0
20260901081534 64 268 14.0 24.0 0.00 0.07 0.01 78 1015.0
20260901081034 65 283 16.0 24.0 0.00 0.07 0.01 78 1014.9
20260901080534 65 268 11.0 32.0 0.00 0.07 0.01 78 1015.0
20260901080034 65 207 13.0 32.0 0.00 0.07 0.01 77 1015.0
20260901075533 65 265 5.0 27.0 0.00 0.07 0.01 79 1015.0
20260901075033 64 302 10.0 27.0 0.00 0.07 0.01 79 1015.0
20260901074535 64 340 12.0 26.0 0.00 0.07 0.01 79 1014.8
20260901074031 65 291 13.0 26.0 0.00 0.07 0.01 79 1014.9
20260901073529 64 274 9.0 25.0 0.00 0.07 0.01 80 1014.9
20260901073029 64 250 13.0 33.0 0.00 0.07 0.01 79 1015.0
20260901072530 64 251 10.0 34.0 0.00 0.07 0.01 81 1014.9
20260901072027 63 286 13.0 28.0 0.00 0.07 0.01 81 1014.8
20260901071526 63 234 9.0 24.0 0.00 0.07 0.01 83 1014.8
20260901071024 62 315 8.0 26.0 0.00 0.07 0.01 83 1014.8
20260901070524 62 280 7.0 32.0 0.00 0.07 0.01 83 1014.7
20260901070024 62 283 10.0 33.0 0.00 0.07 0.01 83 1014.7
20260901065522 62 281 12.0 28.0 0.00 0.07 0.01 82 1014.7
20260901065021 62 266 13.0 24.0 0.00 0.07 0.01 82 1014.6
20260901064521 62 294 12.0 24.0 0.00 0.07 0.01 83 1014.6
20260901064021 62 254 9.0 19.0 0.00 0.07 0.01 83 1014.5
20260901063518 62 221 9.0 19.0 0.00 0.07 0.01 84 1014.5
20260901063024 62 207 9.0 26.0 0.00 0.07 0.01 85 1014.5
20260901062517 62 286 14.0 26.0 0.00 0.07 0.01 85 1014.5
20260901062115 62 278 11.0 25.0 0.00 0.07 0.01 85 1014.5
20260901061516 61 311 9.0 21.0 0.00 0.07 0.01 86 1014.4
20260901061013 61 261 10.0 25.0 0.00 0.07 0.01 87 1014.4
20260901060515 61 238 11.0 25.0 0.00 0.07 0.01 87 1014.3
20260901060010 61 271 10.0 20.0 0.00 0.07 0.01 87 1014.3
20260901055510 61 239 9.0 17.0 0.00 0.07 0.01 87 1014.3
20260901055010 61 229 8.0 17.0 0.00 0.07 0.01 87 1014.3
20260901054510 60 256 8.0 17.0 0.00 0.07 0.01 88 1014.2
20260901054009 60 260 2.0 16.0 0.00 0.07 0.01 88 1014.2
20260901053508 60 278 4.0 13.0 0.00 0.07 0.01 88 1014.2
20260901053007 60 240 2.0 17.0 0.00 0.07 0.01 89 1014.1
20260901052506 60 263 5.0 17.0 0.00 0.07 0.01 89 1014.0
20260901052006 60 252 8.0 16.0 0.00 0.07 0.01 89 1014.0
20260901051505 60 262 1.0 17.0 0.00 0.07 0.01 90 1013.8
20260901051007 59 252 4.0 17.0 0.00 0.07 0.01 91 1013.9
20260901050504 59 261 4.0 10.0 0.00 0.07 0.01 91 1013.7
20260901050003 59 360 2.0 8.0 0.00 0.07 0.01 92 1013.8
20260901045501 58 259 3.0 8.0 0.00 0.07 0.01 92 1013.7
20260901045100 58 227 0.0 1.0 0.00 0.07 0.01 92 1013.7
20260901044606 58 254 0.0 2.0 0.00 0.07 0.01 92 1013.7
20260901044103 58 254 0.0 3.0 0.00 0.07 0.01 92 1013.6
20260901043557 58 254 0.0 5.0 0.00 0.07 0.01 92 1013.6
20260901043056 58 253 1.0 5.0 0.00 0.07 0.01 92 1013.6
20260901042555 57 230 1.0 4.0 0.00 0.07 0.01 92 1013.5
20260901042053 57 360 0.0 0.0 0.00 0.07 0.01 92 1013.4
20260901041655 58 360 0.0 0.0 0.00 0.07 0.01 92 1013.4
20260901041055 58 222 0.0 0.0 0.00 0.07 0.01 92 1013.4
20260901040553 58 222 0.0 0.0 0.00 0.07 0.01 92 1013.3
20260901040052 58 220 0.0 4.0 0.00 0.07 0.01 92 1013.2
20260901035552 58 214 0.0 5.0 0.00 0.07 0.01 92 1013.2
20260901035052 58 360 3.0 5.0 0.00 0.07 0.01 92 1013.1
20260901034551 58 230 1.0 6.0 0.00 0.07 0.01 92 1013.1
20260901034051 58 243 2.0 6.0 0.00 0.07 0.01 92 1013.1
20260901033551 58 223 0.0 6.0 0.00 0.07 0.01 92 1013.1
20260901033106 58 215 0.0 0.0 0.00 0.07 0.01 92 1013.0
20260901032551 58 215 0.0 0.0 0.00 0.07 0.01 92 1012.9
20260901032049 58 217 0.0 0.0 0.00 0.07 0.01 92 1012.9
20260901031549 58 217 0.0 0.0 0.00 0.07 0.01 92 1012.9
20260901031048 58 217 0.0 0.0 0.00 0.07 0.01 92 1012.9
20260901030548 58 217 0.0 0.0 0.00 0.07 0.01 92 1012.8
20260901030052 59 217 0.0 0.0 0.00 0.07 0.01 92 1012.8
20260901025547 59 217 0.0 0.0 0.00 0.07 0.01 92 1012.8
20260901025047 59 217 0.0 0.0 0.00 0.07 0.01 92 1012.8
20260901024546 59 217 0.0 0.0 0.00 0.07 0.01 92 1012.9
20260901024046 59 215 0.0 0.0 0.00 0.07 0.01 92 1012.9
20260901023544 59 215 0.0 0.0 0.00 0.07 0.01 92 1012.8
20260901023047 59 215 0.0 0.0 0.00 0.07 0.01 91 1012.8
20260901022544 60 215 0.0 6.0 0.00 0.07 0.01 92 1012.9
20260901022043 60 215 0.0 6.0 0.00 0.07 0.01 92 1012.7
20260901021558 60 219 1.0 8.0 0.00 0.07 0.01 92 1012.8
20260901021143 60 220 3.0 8.0 0.01 0.07 0.01 92 1012.8
20260901020542 60 202 2.0 6.0 0.01 0.07 0.01 92 1012.8
20260901020041 60 360 1.0 6.0 0.01 0.07 0.01 92 1012.8
20260901015540 60 209 1.0 6.0 0.01 0.07 0.01 92 1012.8
20260901015039 60 211 2.0 6.0 0.01 0.07 0.01 92 1012.8
20260901014539 60 211 2.0 8.0 0.01 0.07 0.01 92 1012.9
20260901014038 61 233 4.0 8.0 0.01 0.07 0.01 92 1012.8
20260901013538 61 225 3.0 6.0 0.01 0.07 0.01 92 1012.7
20260901013049 61 360 3.0 6.0 0.01 0.07 0.01 92 1012.6
20260901012536 61 220 3.0 7.0 0.01 0.07 0.01 92 1012.6
20260901012036 61 360 3.0 9.0 0.01 0.07 0.01 92 1012.6
20260901011558 61 360 3.0 9.0 0.01 0.07 0.01 92 1012.7
20260901011036 61 223 4.0 8.0 0.00 0.06 0.00 92 1012.7
20260901010536 61 236 2.0 12.0 0.00 0.06 0.00 93 1012.7
20260901010036 61 238 3.0 12.0 0.00 0.06 0.00 93 1012.8
20260901005537 61 225 2.0 8.0 0.00 0.06 0.00 93 1012.8
20260901005039 61 227 2.0 8.0 0.00 0.06 0.00 94 1012.8
20260901004536 61 215 3.0 8.0 0.00 0.06 0.00 94 1012.7
20260901004035 61 220 2.0 7.0 0.00 0.06 0.00 94 1012.7
20260901003536 61 210 2.0 8.0 0.00 0.06 0.00 95 1012.7
20260901003045 61 231 1.0 8.0 0.00 0.06 0.00 95 1012.8
20260901002535 61 228 0.0 0.0 0.00 0.06 0.00 95 1012.8
20260901002034 61 223 0.0 0.0 0.00 0.06 0.00 95 1012.9
20260901001534 61 223 0.0 0.0 0.00 0.06 0.00 95 1012.8
20260901001034 61 210 0.0 0.0 0.00 0.06 0.00 95 1012.6
20260901000035 61 212 0.0 0.0 0.00 0.06 0.00 95 1012.8
20260831235532 61 202 0.0 0.0 0.00 0.06 0.00 95 1012.8
20260831235032 61 205 0.0 0.0 0.00 0.06 0.00 95 1012.8
20260831234532 61 207 0.0 0.0 0.00 0.06 0.00 95 1012.8